Showing default

TOMORROW-S1, 60479

Orbit data source: Space-Track

TOMORROW-S1, 60479 is a payload satellite owned by Tomorrow.io (US) in SSO that was launched on Fri, 16 Aug 2024 UTC via an FALCON 9 launch vehicle from the Air Force Western Test Range (AFWTR). Payload-class satellites include a variety of spacecraft equipped with specific instruments for various scientific and technological missions. These include communications satellites like Starlink; space stations such as the ISS; scientific satellites like the Hubble; Earth observation satellites from companies like Planet Labs, Umbra, and HawkEye 360; GPS; miniature CubeSats for education and research; and military/defense satellites.

Loading next visibility...
Identifier
60479, 2024-149M
Orbit
SSO
Country
Flag of USUS
Related business
Manufacturer
Blue Canyon
Mission
Operational Commercial Weather
Bus & Motor
CUBESAT 6U, Unknown motor
Mass
12 kg wet, 12 kg dry
Launch date (UTC)
2024-08-16 (2 years ago)
Launch vehicle
FALCON 9
Launch site
Air Force Western Test Range (AFWTR)
Object type
Payload
Rocket body
Debris
Shape & HBR
Box + 2 Pan, 1.0 m
Radar Cross Section
0.138 m², Medium (>0.1 m² and < 1m²)

Expand to show TLE details & history
Last TLE update: 7 hours ago

TLE from 7 hours ago
0 TOMORROW-S1
1 60479U 24149M   26126.21442592  .00007345  00000-0  23914-3 0  9993
2 60479  97.3746 206.8383 0003666  62.0967 298.0646 15.32146103 95662
Epoch: 2026-05-06T05:08Z
TLE epoch observation values (Epoch: 2026-05-06T05:08:46.399Z)
Latitude
0.00001°
Longitude
-94.43316°
Altitude
471.338 km
Speed
7.631 km/s
True Right ascension
13h 47m 21s
True Declination
0° 00' 00"
Sunlit
Object was in full shadow at epoch
Visualization orbit readout
Latitude
Unknown
Longitude
Unknown
Altitude
Unknown
Speed
Unknown
Apparent Right ascension
Unknown
Apparent Declination
Unknown
Sunlit
N/A
Visualization observer readout
Local Sidereal Time
20:06:09
Azimuth
Unknown
Elevation
Unknown
Doppler factor
Unknown
Orbital elements
Apogee altitude
468.868 km
Perigee altitude
463.85 km
Semi-major axis
6,844.496 km
Eccentricity
0.00037
Inclination
97.3746°
RAAN
206.8383°
Arg. of periapsis
62.0967°
True anomaly
298.02752°
Mean anomaly
298.0646°
Eccentric anomaly
298.04606°
Mean motion
3.83293 °/min
Orbital period
93.92 mins
BSTAR
0.00023914
Loading maneuver chart data...
Computing Atmospheric mass density...
Loading historical data...
Loading historical data...
Loading historical data...
Loading historical data...
Loading historical data...
Loading historical data...
Loading historical data...

Documentation

Showing up to 5 results
|